Weather History for Orangeburg, SC

Change the Weather History Date:

Friday, October 25, 2013

  Actual Average Record
Temperature  
Mean Temperature 52 °F 62 °F  
Max Temperature 61 °F 74 °F 85 °F (1953)
Min Temperature 43 °F 50 °F 32 °F (2006)
Degree Days  
Heating Degree Days 13 4  
Month to date heating degree days 31 55  
Since 1 July heating degree days 31 59  
Cooling Degree Days 0 2  
Month to date cooling degree days 115 85  
Year to date cooling degree days 2021 2079  
Growing Degree Days 2 (Base 50)    
Moisture  
Dew Point 35 °F    
Average Humidity 56    
Maximum Humidity 86    
Minimum Humidity 29    
Precipitation  
Precipitation 0.00 in 0.07 in 0.94 in (1972)
Month to date precipitation 0.41 2.97  
Year to date precipitation 49.32 40.07  
Sea Level Pressure  
Sea Level Pressure 30.28 in    
Wind  
Wind Speed 6 mph (NNE)    
Max Wind Speed 16 mph    
Max Gust Speed 23 mph    
Visibility 10 miles    
Events      
T = Trace of Precipitation, MM = Missing Value Source: NWS Daily Summary

Daily Weather History Graph

Daily Weather History Graph

Search for Another Location

Airport:

Trip Planner

Search our weather history database for the weather conditions in past years. The results will help you decide how hot, cold, wet, or windy it might be!

Date:

Astronomy

Oct. 25, 2013 Rise Set
Actual Time 7:36 AM EDT 6:38 PM EDT
Civil Twilight 7:10 AM EDT 7:03 PM EDT
Nautical Twilight 6:41 AM EDT 7:32 PM EDT
Astronomical Twilight 6:12 AM EDT 8:01 PM EDT
Moon No Moon Rise 1:11 PM EDT (10/25)
Length of Visible Light 11h 52m
Length of Day
11h 01m
Waning Gibbous, 62% of the Moon is Illuminated
Oct 25
Waning Gibbous
Oct 26
Last Quarter
Nov 3
New
Nov 10
First Quarter
Nov 17
Full

Hourly Weather History & Observations

Time (EDT) Temp. Windchill Dew Point Humidity Pressure Visibility Wind Dir Wind Speed Gust Speed Precip Events Conditions
12:53 AM 48.0 °F - 43.0 °F 83% 30.16 in 10.0 mi SSW 3.5 mph - N/A   Overcast
1:53 AM 46.0 °F - 43.0 °F 89% 30.17 in 10.0 mi Calm Calm - N/A   Scattered Clouds
2:53 AM 48.9 °F - 42.1 °F 77% 30.17 in 10.0 mi Calm Calm - N/A   Mostly Cloudy
3:53 AM 50.0 °F - 39.9 °F 68% 30.17 in 10.0 mi NNW 4.6 mph - N/A   Partly Cloudy
4:53 AM 48.0 °F - 39.9 °F 74% 30.18 in 10.0 mi NW 4.6 mph - N/A   Partly Cloudy
5:53 AM 48.0 °F - 39.0 °F 71% 30.21 in 10.0 mi North 5.8 mph - N/A   Scattered Clouds
6:53 AM 46.9 °F - 37.0 °F 68% 30.24 in 10.0 mi NNE 5.8 mph - N/A   Clear
7:53 AM 46.0 °F 42.5 °F 36.0 °F 68% 30.27 in 10.0 mi NNE 6.9 mph - N/A   Partly Cloudy
8:53 AM 48.0 °F - 36.0 °F 63% 30.30 in 10.0 mi NNE 10.4 mph - N/A   Clear
9:53 AM 52.0 °F - 34.0 °F 50% 30.31 in 10.0 mi NE 10.4 mph 17.3 mph N/A   Clear
10:53 AM 54.0 °F - 32.0 °F 43% 30.32 in 10.0 mi NE 13.8 mph - N/A   Clear
11:53 AM 57.0 °F - 32.0 °F 39% 30.32 in 10.0 mi North 8.1 mph - N/A   Clear
12:53 PM 57.9 °F - 32.0 °F 37% 30.32 in 10.0 mi NE 6.9 mph 16.1 mph N/A   Clear
1:53 PM 57.9 °F - 30.0 °F 35% 30.30 in 10.0 mi NNE 9.2 mph - N/A   Partly Cloudy
2:53 PM 57.9 °F - 28.9 °F 33% 30.28 in 10.0 mi NE 11.5 mph 20.7 mph N/A   Scattered Clouds
3:53 PM 60.1 °F - 28.9 °F 31% 30.28 in 10.0 mi NNW 8.1 mph - N/A   Partly Cloudy
4:53 PM 60.1 °F - 28.9 °F 31% 30.28 in 10.0 mi NNE 10.4 mph - N/A   Clear
5:53 PM 57.9 °F - 30.0 °F 35% 30.29 in 10.0 mi North 8.1 mph - N/A   Clear
6:53 PM 53.1 °F - 32.0 °F 45% 30.30 in 10.0 mi NE 3.5 mph - N/A   Clear
7:53 PM 48.9 °F - 35.1 °F 59% 30.32 in 10.0 mi NE 3.5 mph - N/A   Clear
8:53 PM 46.9 °F - 35.1 °F 63% 30.34 in 10.0 mi NE 4.6 mph - N/A   Clear
9:53 PM 46.0 °F 44.8 °F 34.0 °F 63% 30.36 in 10.0 mi NE 3.5 mph - N/A   Clear
10:53 PM 45.0 °F 43.5 °F 34.0 °F 65% 30.37 in 10.0 mi NE 3.5 mph - N/A   Clear
11:53 PM 44.1 °F 42.5 °F 33.1 °F 65% 30.36 in 10.0 mi ENE 3.5 mph - N/A   Clear